GFSMA_925_rhum_135.txt.gz
RH
95 94 94 95 90 89 85 84 82 85 85 83 76 77 76 75 74 73 69 63 63 64 60 57 57 52 53 64 69 75 78 79 78 75 76 77 75 76 77 78 78 80 78
88 85 88 89 89 92 85 85 87 86 84 87 86 87 89 89 85 79 68 63 66 62 60 59 58 55 53 60 67 69 76 79 79 78 75 76 77 75 76 73 77 80 80
86 83 82 87 82 76 76 76 77 77 75 75 77 78 79 82 83 90 91 87 96 71 64 61 60 58 53 56 63 69 69 75 80 79 78 77 77 77 77 74 76 80 80
80 81 84 81 78 76 80 87 87 83 82 82 79 74 76 76 78 74 64 76 79 95 80 71 68 64 60 58 60 66 68 70 74 81 81 78 78 78 78 78 77 77 80
74 79 83 83 79 79 77 80 79 83 80 79 78 75 69 72 72 70 72 79 80 85 98 98 95 85 74 65 61 64 67 71 73 77 80 81 79 79 79 79 80 76 77
74 68 78 81 74 76 81 81 80 76 77 88 71 66 67 65 72 61 74 75 65 63 78 78 87 96 98 90 75 70 72 70 70 75 77 78 81 82 81 81 81 80 77
78 78 88 88 86 85 90 92 93 92 89 88 89 74 49 42 58 66 79 80 80 85 85 74 73 54 62 73 79 77 72 83 81 69 76 75 75 80 81 82 82 83 84
81 80 86 94 94 94 94 90 93 92 91 92 92 97 96 73 78 65 65 81 78 66 82 94 97 83 76 85 79 68 72 79 79 81 63 73 75 74 79 80 82 83 86
88 85 85 92 94 94 94 95 94 92 92 88 88 94 96 98 84 62 61 69 67 71 81 82 82 91 87 90 88 76 65 70 60 59 75 67 72 74 76 75 78 80 84
87 86 87 91 94 95 95 96 95 95 91 92 86 89 83 91 93 91 71 68 73 73 79 82 97 100 96 91 85 88 63 67 66 60 69 66 71 73 72 74 74 80 82
93 89 94 94 92 92 96 95 94 94 93 95 97 98 93 84 82 91 88 84 74 72 73 73 74 71 93 93 91 90 88 73 66 55 53 52 62 73 73 76 72 76 80
91 88 91 91 89 92 93 93 94 94 99 96 98 99 100 98 93 94 88 79 86 79 77 80 78 73 74 78 88 89 88 86 75 67 64 58 64 70 73 72 76 74 78
95 90 90 95 94 92 90 92 97 94 98 98 100 100 99 100 99 100 95 91 84 84 81 79 78 77 74 70 74 84 83 96 91 78 79 74 76 74 65 69 75 78 75
92 88 94 95 93 94 91 96 93 98 96 99 99 99 100 100 99 100 100 98 94 87 80 74 80 78 91 91 91 88 90 77 93 91 76 79 79 79 69 67 67 77 73
90 88 91 90 96 98 99 93 96 97 97 98 98 99 100 100 100 100 100 100 98 97 93 80 86 87 86 90 93 90 94 92 95 77 70 70 74 80 82 75 71 70 71
83 85 84 82 91 95 98 100 99 99 98 98 98 99 100 100 100 99 100 100 100 99 96 97 95 92 94 99 95 85 85 94 97 92 85 79 71 75 73 72 72 74 74
75 76 70 73 85 93 97 99 98 97 98 100 96 98 100 100 100 98 97 99 100 100 97 96 95 94 94 98 83 84 85 87 88 90 88 83 87 94 88 86 76 75 74
74 70 72 61 82 89 91 99 95 90 91 98 98 92 100 100 100 100 100 99 100 99 100 96 93 94 95 93 97 88 82 83 75 72 79 84 83 82 86 89 98 90 87
75 71 70 73 77 90 90 95 79 84 81 90 93 90 98 100 100 100 100 100 99 99 99 98 92 93 93 95 97 96 90 73 68 78 83 82 83 84 91 99 94 85 89
82 80 65 74 84 93 93 93 86 88 59 88 94 90 95 97 100 99 100 100 99 97 94 92 90 90 92 94 96 98 96 90 77 91 64 67 66 80 87 94 98 99 98
87 88 67 80 86 99 100 92 91 92 73 76 88 91 92 90 94 98 99 97 100 98 95 88 89 88 91 94 97 98 96 96 82 88 97 79 77 76 69 72 92 98 100
82 91 79 90 87 97 100 94 91 96 91 86 90 94 87 91 80 98 98 100 100 100 98 96 91 92 93 97 98 98 96 94 92 90 97 78 80 65 64 57 63 76 96
71 73 79 87 89 89 100 100 99 90 94 95 92 86 88 91 86 79 92 93 97 99 100 99 97 98 96 100 100 97 97 98 93 96 89 78 80 88 61 60 97 72 69
85 90 74 84 87 84 94 89 93 88 80 80 90 85 80 84 85 89 94 82 88 96 93 95 95 96 96 97 100 99 99 95 84 92 86 93 86 90 75 65 95 61 83
83 93 85 76 85 85 83 92 86 89 78 81 84 89 79 81 81 86 90 92 90 88 87 96 96 96 98 100 98 99 97 91 86 88 99 97 86 90 79 66 68 63 86
90 78 81 84 84 84 82 83 82 89 93 88 78 81 81 78 79 84 87 89 95 92 94 85 78 68 75 82 98 94 100 96 94 90 94 98 96 94 88 73 78 76 73

GFSMA_925_rhum_138.txt.gz
RH
92 92 91 90 90 90 87 85 86 88 87 86 83 81 81 87 91 92 89 90 78 75 86 75 72 67 62 66 61 66 71 74 74 78 82 80 78 76 80 80 76 74 75
85 86 91 88 80 81 79 82 85 85 88 89 85 85 91 91 88 88 86 90 87 86 77 92 94 75 70 65 68 65 68 76 76 77 79 78 80 76 78 80 80 75 76
82 86 85 83 81 77 76 76 77 78 79 81 82 82 79 80 82 89 89 91 86 84 57 71 86 86 80 72 64 70 67 72 79 78 79 78 78 80 77 80 80 79 78
70 80 82 80 81 82 79 76 75 74 75 77 77 76 75 72 74 76 82 87 74 70 62 65 64 88 98 99 89 69 74 71 73 80 80 80 80 80 80 78 78 77 78
61 65 72 74 75 76 78 78 74 73 73 78 69 62 64 64 59 71 74 89 79 72 73 69 91 90 87 95 93 93 76 70 72 76 82 81 82 80 81 81 81 77 77
67 64 72 75 76 81 81 79 80 69 80 86 65 57 58 49 51 60 75 78 82 74 81 89 85 71 61 69 72 91 90 78 70 71 72 76 83 83 82 82 82 82 80
78 76 78 80 82 90 91 91 93 87 84 85 87 63 39 73 67 69 92 98 93 100 99 92 83 79 78 77 77 82 90 64 81 77 78 73 74 76 85 83 84 84 84
83 82 82 87 92 94 94 94 95 96 90 86 88 96 97 72 79 68 62 68 78 71 85 96 100 100 100 100 90 73 74 77 80 87 76 69 76 76 74 82 80 82 83
87 83 84 89 92 93 95 93 94 94 95 91 84 95 86 88 82 63 66 69 67 71 81 90 83 94 98 99 98 88 72 69 72 74 81 80 79 81 75 70 78 78 81
87 90 92 91 88 91 93 94 95 93 94 95 88 88 84 93 88 94 72 64 74 70 72 64 76 71 70 92 97 99 95 91 76 69 67 83 73 69 78 75 71 74 76
84 84 87 89 91 90 91 91 93 94 98 97 99 99 93 84 77 92 82 87 75 78 78 85 73 65 72 72 74 84 99 98 97 97 91 72 72 63 66 79 72 72 74
84 88 88 90 93 93 92 97 96 96 97 98 98 99 100 97 92 94 92 82 78 78 79 81 78 82 78 90 92 92 93 91 92 88 89 88 83 70 68 67 68 72 73
90 91 90 90 95 95 97 95 95 98 98 100 100 100 100 100 100 100 98 91 88 83 81 76 76 76 95 82 74 81 91 90 100 98 84 85 87 86 69 67 69 67 70
88 85 79 88 93 94 95 95 97 99 99 97 99 99 100 99 100 100 100 99 95 86 79 72 73 78 77 80 94 95 91 82 100 97 83 100 100 97 90 81 72 66 72
90 83 73 89 93 96 99 96 96 98 98 94 98 99 99 99 98 99 99 100 98 97 94 85 91 80 95 96 95 90 87 87 99 100 81 85 81 83 98 97 85 71 73
88 69 63 89 91 90 90 96 95 99 98 96 98 97 98 99 99 98 98 99 100 99 95 93 91 94 91 88 82 81 83 86 88 88 97 93 84 94 100 100 100 96 83
72 67 56 88 90 93 94 91 96 92 96 96 94 96 97 97 99 98 97 99 100 100 96 94 93 90 91 91 87 84 82 83 74 91 93 96 96 100 99 100 100 100 100
69 70 56 88 91 89 85 91 82 89 92 97 88 98 99 99 96 98 98 99 100 98 100 94 87 91 91 92 95 93 88 85 85 98 76 74 85 86 96 97 100 100 100
71 54 58 88 93 96 90 92 52 87 90 88 94 97 96 98 98 97 97 99 98 95 93 92 90 90 90 92 94 94 91 89 96 81 64 69 82 70 72 85 99 100 99
69 50 80 94 98 93 94 92 57 67 86 97 99 95 92 92 96 96 96 99 99 97 90 86 87 87 91 92 94 97 93 92 100 71 65 72 58 58 56 63 74 82 95
66 63 85 94 99 92 95 91 73 72 83 87 92 87 90 88 95 95 98 96 98 97 92 88 87 85 91 92 98 97 96 96 91 89 84 82 59 55 59 90 69 70 83
66 72 88 92 99 98 94 98 96 92 95 92 88 90 87 85 90 98 100 100 98 95 97 95 90 87 93 96 99 95 97 94 89 92 92 77 75 73 69 98 68 83 72
67 78 87 94 96 97 99 97 82 83 90 88 84 88 88 89 83 86 92 94 99 97 97 100 97 98 96 100 100 93 95 93 94 99 81 88 86 90 67 95 74 67 69
67 82 85 87 91 96 100 91 77 78 83 90 84 82 86 91 86 87 87 80 81 95 97 97 99 96 94 95 100 98 96 90 74 98 80 95 90 91 69 70 71 75 77
74 76 84 85 85 87 92 94 74 73 81 80 83 80 83 87 84 85 83 88 81 73 76 95 98 99 100 98 98 99 98 88 86 89 88 100 93 92 79 71 65 65 78
79 77 76 84 84 84 85 91 79 78 77 79 79 78 80 82 82 86 85 93 97 88 76 56 58 62 71 79 95 85 100 97 95 86 92 100 95 96 88 76 71 70 71

GFSMA_925_rhum_141.txt.gz
RH
89 90 91 89 86 85 83 81 82 84 84 84 84 84 82 85 90 91 88 84 82 77 69 75 67 74 84 77 69 66 69 76 71 74 79 81 82 80 78 78 78 77 81
86 88 87 85 83 84 83 82 80 77 78 78 79 82 84 83 86 89 92 93 91 86 74 76 60 63 76 86 92 90 73 72 73 74 78 80 78 80 75 80 79 79 79
77 82 82 80 80 81 80 79 78 77 74 72 72 74 76 77 78 82 85 89 90 91 79 76 65 56 63 77 94 68 90 82 74 74 78 78 78 82 78 75 80 78 83
60 66 72 74 77 78 76 74 74 74 74 71 68 66 66 69 71 71 80 83 84 83 83 72 74 62 70 72 88 80 85 97 84 77 76 79 80 82 82 78 78 78 80
59 59 61 64 66 70 69 69 67 69 73 72 62 52 46 46 55 62 65 78 79 90 85 78 60 66 67 67 82 74 91 73 93 79 77 76 79 82 81 82 81 79 77
70 67 68 69 70 69 70 73 72 70 77 78 59 53 43 38 36 39 54 74 83 90 87 82 74 70 74 73 93 96 83 79 58 79 83 81 79 80 80 81 82 81 79
76 74 76 78 82 86 88 88 86 87 86 81 81 61 44 70 81 76 80 98 99 99 100 100 99 98 99 79 90 92 89 81 70 75 94 78 83 78 75 75 79 80 81
77 78 80 84 86 88 90 92 94 96 92 89 93 92 97 72 74 74 77 78 73 88 98 96 94 98 99 100 100 100 100 84 87 96 72 79 81 81 77 74 75 78 75
81 83 85 85 87 90 92 92 93 93 98 90 86 95 94 94 87 67 72 76 72 70 71 70 74 73 76 86 97 98 99 97 96 73 85 82 67 82 79 77 78 75 73
82 86 88 88 88 87 90 93 96 96 98 98 87 90 89 93 94 95 71 76 77 72 71 78 66 68 67 72 80 100 99 100 98 91 86 86 72 83 80 78 77 78 72
83 84 82 84 86 89 89 94 94 95 96 99 100 100 95 85 80 91 83 90 79 75 78 74 71 83 79 98 98 88 91 98 100 100 100 98 94 92 82 79 83 84 77
85 84 84 88 86 92 95 92 95 97 99 100 99 100 100 99 96 96 91 80 78 76 79 71 80 77 99 90 84 80 84 97 92 100 99 95 84 88 92 82 87 83 77
82 76 88 92 91 90 94 90 96 98 99 99 99 100 100 100 100 100 98 94 91 86 78 73 72 87 86 83 94 92 87 90 91 100 100 99 86 79 79 89 88 86 72
87 71 91 94 98 92 93 96 99 100 91 97 99 99 99 100 99 100 100 98 95 90 83 80 84 90 85 89 88 85 84 85 91 89 99 99 95 99 100 100 99 95 80
80 62 89 91 93 99 97 92 98 100 86 99 97 97 99 97 99 98 99 99 99 96 90 86 90 92 87 84 80 82 83 86 87 95 96 99 100 99 98 94 98 100 100
68 57 85 88 88 88 91 87 92 100 89 98 97 94 94 95 97 97 98 98 98 99 96 91 92 89 86 86 86 88 89 89 90 94 84 98 100 100 100 77 86 98 100
66 55 86 88 88 85 82 80 88 91 90 78 93 94 96 96 96 98 97 98 98 98 96 91 92 87 87 89 88 90 88 84 93 79 96 85 92 96 100 99 87 84 86
61 53 87 89 89 89 76 54 84 87 77 82 93 90 92 98 96 96 97 97 98 97 98 94 90 89 90 91 93 91 90 94 92 79 80 75 77 83 98 97 100 99 100
47 61 89 95 97 94 75 45 76 77 80 92 97 91 96 96 97 98 97 98 93 93 94 89 88 88 91 92 92 89 87 94 96 72 77 69 83 93 92 98 96 84 91
50 82 94 100 95 90 74 54 66 76 86 92 93 92 93 95 96 98 96 99 92 90 94 88 88 87 89 91 91 93 90 86 99 67 61 75 68 94 92 91 97 84 74
63 90 96 98 95 95 94 69 82 84 86 89 90 86 89 92 94 98 97 100 93 93 95 89 86 85 92 94 96 95 92 89 100 80 56 82 59 66 94 97 94 96 75
69 85 97 100 93 100 97 96 75 80 92 95 92 89 81 90 89 96 100 100 92 96 95 94 91 91 94 100 100 98 99 92 85 86 60 81 67 52 74 92 91 91 94
74 81 92 91 90 96 92 95 83 80 80 86 89 94 84 84 87 86 90 98 100 95 98 99 97 98 98 100 100 99 100 93 95 96 55 93 82 58 68 96 64 92 86
80 85 86 92 93 93 91 95 83 88 87 86 86 89 91 86 87 87 83 76 76 100 98 98 99 98 99 98 88 98 100 82 79 90 85 95 83 73 63 84 45 67 63
83 86 88 88 89 93 93 92 78 78 76 85 91 93 85 88 87 89 64 67 59 60 77 100 100 99 100 97 95 86 99 92 88 93 90 100 90 91 75 80 40 58 52
80 82 86 90 92 93 90 89 74 79 79 79 79 85 87 87 86 92 87 80 79 80 63 51 55 62 64 77 88 82 98 100 98 92 96 100 94 100 90 64 22 66 49

GFSMA_925_rhum_147.txt.gz
RH
90 91 90 88 87 86 84 83 82 80 79 77 76 76 77 82 81 92 97 78 80 83 84 85 88 77 74 64 62 78 81 78 74 70 77 74 73 74 73 75 74 72 78
83 84 84 83 82 82 79 78 78 77 76 75 74 72 71 71 70 70 90 94 75 76 84 93 97 96 90 82 74 71 74 76 83 74 74 70 72 72 73 75 76 72 73
60 64 67 69 71 69 69 70 68 66 66 66 65 64 62 60 61 64 68 82 95 99 97 99 97 99 97 90 89 75 73 73 79 81 79 83 70 78 73 75 76 75 72
52 54 61 63 60 57 57 64 57 64 67 54 43 40 39 39 39 41 49 70 86 98 100 99 99 96 100 98 97 91 76 82 74 74 77 79 74 69 78 78 79 77 77
58 58 63 63 63 67 68 75 77 75 75 69 62 50 38 35 37 45 59 63 79 98 98 98 99 97 96 97 91 89 93 86 77 74 73 66 66 55 58 66 79 78 79
60 63 67 67 77 84 85 86 87 84 84 80 71 67 55 60 92 97 98 100 98 94 97 96 97 98 100 100 96 96 98 98 79 70 78 80 71 58 60 59 84 81 79
61 62 74 78 81 84 88 87 83 83 80 83 74 66 66 89 88 96 95 95 89 89 79 75 80 90 99 100 100 100 100 100 98 99 99 83 78 74 72 62 82 87 82
62 65 72 83 83 84 88 89 87 79 78 83 88 81 69 55 69 82 89 85 83 81 70 67 66 79 92 100 100 100 100 100 100 100 100 100 100 94 82 78 66 80 82
70 73 80 87 90 91 90 90 89 88 76 79 92 80 81 78 73 67 76 79 85 84 72 67 72 86 99 98 99 96 96 98 100 99 100 99 98 100 99 92 84 81 85
74 74 78 95 97 94 92 89 90 88 83 82 76 80 89 91 88 78 65 66 78 76 80 77 88 97 96 100 94 93 88 86 88 93 98 99 99 99 98 100 94 82 85
75 78 84 98 100 95 98 97 93 91 88 85 87 87 84 79 92 93 91 78 70 69 74 70 89 91 93 94 90 96 84 80 81 80 86 95 100 100 100 100 100 94 80
92 85 92 99 100 98 99 100 95 93 90 90 91 94 96 96 94 94 89 84 78 69 73 74 91 86 86 85 86 82 80 91 87 84 80 82 90 94 94 94 95 89 80
90 91 93 99 100 99 98 100 93 94 92 89 92 97 98 99 100 98 94 86 83 73 72 96 90 88 85 85 87 76 97 99 93 94 97 88 87 95 93 92 93 89 83
88 90 96 98 100 96 97 100 91 90 94 93 95 99 100 100 100 100 99 95 84 64 67 96 96 88 82 84 90 93 96 99 98 93 100 100 100 100 98 93 89 93 90
82 88 96 97 98 94 96 97 91 83 92 93 96 100 100 100 100 100 100 100 99 84 65 99 92 88 85 84 88 91 94 100 99 93 100 99 98 98 100 100 99 97 99
71 90 96 94 86 85 87 86 85 81 80 84 89 94 97 100 100 100 100 100 100 94 79 98 100 100 97 81 90 89 97 98 99 99 100 98 99 99 99 100 100 100 100
79 91 96 87 76 77 80 78 77 78 78 74 82 88 93 98 98 99 100 100 98 98 87 93 100 100 91 94 87 97 100 85 90 100 100 100 99 98 99 98 99 99 100
70 95 97 86 74 69 72 72 71 75 73 68 76 75 79 79 86 86 91 97 95 96 95 88 93 92 91 78 86 98 98 76 66 89 88 100 100 100 99 99 98 98 99
88 94 93 85 77 68 64 67 71 75 77 72 75 76 77 77 77 76 77 78 78 80 83 79 78 83 75 68 67 80 99 93 46 61 71 89 98 100 100 98 99 100 99
87 89 88 87 80 71 66 65 67 73 76 74 72 77 76 78 79 76 76 78 72 71 69 68 63 62 61 58 59 60 66 97 70 45 74 49 85 97 81 94 93 98 100
89 85 86 86 83 77 70 71 69 72 73 69 65 66 78 86 91 90 79 82 79 70 66 61 60 60 67 64 64 57 64 74 93 48 63 49 69 86 74 66 81 92 98
92 86 89 81 76 80 95 75 76 71 73 68 60 61 67 71 74 95 97 93 89 83 82 70 68 68 70 72 69 58 65 59 46 47 58 55 61 76 75 57 86 86 92
94 94 88 82 79 84 95 96 92 83 82 84 84 72 68 68 61 59 84 96 95 94 90 82 83 90 87 87 78 60 60 68 63 61 63 57 67 70 82 66 78 77 78
98 100 99 90 84 87 96 92 96 96 94 93 91 91 89 86 79 58 61 78 94 100 97 91 95 100 98 95 78 61 52 67 81 75 85 67 75 76 84 83 67 75 70
90 89 100 97 94 93 96 83 97 100 100 100 100 95 92 93 89 64 60 75 72 75 81 94 100 100 100 100 95 67 60 49 66 76 87 89 80 85 87 86 78 77 75
86 98 91 87 94 93 92 81 89 92 97 96 97 90 88 93 94 67 52 73 70 64 44 35 35 36 46 82 93 97 91 68 70 64 86 89 80 84 72 76 72 75 76